Regional Weather Roundup
Issued by NWS Albany, NY

Home | Current Version | Previous Version | Graphics & Text | Print | Product List | Glossary Off
Versions: 1 2 3 4 5 6 7 8 9 10 11 12 13 14 15 16 17 18 19 20 21 22 23 24 25 26 27 28 29 30 31 32 33 34 35 36 37 38 39 40 41 42 43 44 45 46 47

000
ASUS41 KALY 041910
RWRALY

NEW YORK STATE HOURLY WEATHER ROUNDUP
NATIONAL WEATHER SERVICE ALBANY NY
300 PM EDT FRI SEP 04 2015

NOTE: "FAIR" INDICATES FEW OR NO CLOUDS BELOW 12,000 FEET WITH NO
SIGNIFICANT WEATHER AND/OR NO OBSTRUCTIONS TO VISIBILITY.

NYZ032-033-038>043-046>054-057>066-NYZ062>081-042000-
EAST


CITY           SKY/WX    TMP DP  RH WIND       PRES   REMARKS
ALBANY         MOSUNNY   82  64  54 SW5       30.13F
GLENS FALLS    SUNNY     82  61  48 N7        30.13F
POUGHKEEPSIE   PTSUNNY   82  65  56 W3        30.12S
NEWBURGH       CLOUDY    79  70  73 E9        30.14F
MONTGOMERY     CLOUDY    79  68  69 E7        30.13S
WHITE PLAINS   PTSUNNY   81  66  60 E10       30.13S
ISLIP          PTSUNNY   82  65  56 E10       30.10S
NEW YORK CITY  MOSUNNY   82  66  58 NE14G20   30.10F
CENTRAL PARK   MOSUNNY   84  65  52 E8G20     30.13F
$$

NYZ005>009-017-018-044>046-055-056-042000-
CENTRAL


CITY           SKY/WX    TMP DP  RH WIND       PRES   REMARKS
FULTON         SUNNY     85  59  41 VRB3      30.11S
SYRACUSE       MOSUNNY   84  62  47 NE7       30.09F
ROME           SUNNY     86  60  41 MISG      30.12S
ELMIRA         MOSUNNY   86  66  51 S6        30.08F
BINGHAMTON     MOSUNNY   83  66  56 E7        30.13F
MONTICELLO     CLOUDY    73  66  78 E12       30.18S
$$

NYZ026>034-041>043-042000-
NORTH


CITY           SKY/WX    TMP DP  RH WIND       PRES   REMARKS
WATERTOWN      SUNNY     84  53  34 N13       30.11F
FORT DRUM      NOT AVBL
MASSENA        SUNNY     78  57  48 NE15      30.17F
SARANAC LAKE   SUNNY     79  48  33 E9        30.17F
PLATTSBURGH    SUNNY     75  58  55 VRB7      30.16F
$$

NYZ001>004-010>016-019>021-042000-
WEST


CITY           SKY/WX    TMP DP  RH WIND       PRES   REMARKS
NIAGARA FALLS  MOSUNNY   84  66  54 E10G18    30.07S
BUFFALO        MOSUNNY   85  63  47 E8        30.07F
DUNKIRK        RAIN      75  70  84 N6        30.07S
JAMESTOWN      PTSUNNY   82  66  57 SW7       30.11S
WELLSVILLE     SUNNY     84  61  45 CALM      30.15F
ROCHESTER      MOSUNNY   80  64  58 NE14      30.11S
PENN YAN       SUNNY     82  67  60 VRB3      30.12S
$$

             KEY
       WCI = WIND CHILL INDEX
       VSB = VISIBILITY
       HX  = HEAT INDEX
$$


USA.gov is the U.S. government's official web portal to all federal, state and local government web resources and services.